Location: Chavannes
(47.1090°N, 0.2226°W)
Time: 04:52:14
(UTC+00:00)

Okean O Rocket - Pass Details

Date: 16 October 2021
Orbit: 623 x 643 km, 98.2° (Epoch: 03 December)

Event Time Altitude Azimuth Distance (km) Brightness Sun altitude
Rises 17:55:59 0° 158° (SSE) 2,892 4.8 -8.3°
Reaches altitude 10° 17:58:10 10° 156° (SSE) 1,990 4.0 -8.7°
Maximum altitude 18:02:28 71° 74° (ENE) 666 1.5 -9.4°
Drops below altitude 10° 18:06:49 10° 350° (N) 2,009 4.3 -10.2°
Sets 18:09:02 0° 349° (NNW) 2,923 5.1 -10.5°
